User: anonymous   Login
Location: Drayton Valley
(53.2170°N, 114.9830°W)
Time: 17:14:55
(UTC-06:00)
Language:

MOZ.5/SAFIR/RUBIN 5/SL-8 - Orbit

View from above orbital plane
View from above orbital plane
View from above satellite
View from above satellite

Ground track
Ground track

The orbit data is extracted from the following two-line orbital elements,

1 28898U 05043G   16236.91873183 +.00000054 +00000-0 +20434-4 0  9991
2 28898 097.8879 034.3292 0020787 045.6201 314.6699 14.60119484199825
Epoch (UTC): 23 August 2016 22:02:58
Eccentricity: 0.0020787
inclination: 97.8879°
perigee height: 678 km
apogee height: 707 km
right ascension of ascending node: 34.3292°
argument of perigee: 45.6201°
revolutions per day: 14.60119484
mean anomaly at epoch: 314.6699°
orbit number at epoch: 19982

The dashed part of the orbit path shows where the satellite is in the earth's shadow,  

DLR